カタログに戻る

STARLINK-4080

運用中通信VLEO
NORAD 52835·PAYLOAD·🇺🇸 United States

打ち上げ Jun 17, 2022 から Cape Canaveral Space Force Station

Loading…

次のパス (今後24時間)

TLE

最新Source: CelesTrak SupGP

元期: Sep 15, 2026, 01:17 UTC

1 52835C 22062F   26258.05395833 -.00038996  00000+0 -12536-2 0  2587
2 52835  53.1585 254.1688 0001293  91.2152 238.3542 15.31731231    16

AllMySatでSTARLINK-4080をリアルタイム追跡

Download on the App Store